Tracking 18917 objects as of 16-Jan-2018
HD Live streaming from Space Station
objects crossing your sky now

SKYNET 1

Track SKYNET 1 now!
SKYNET 1 is classified as:


NORAD ID: 4250
Int'l Code: 1969-101A
Perigee: 35,699.3 km
Apogee: 35,885.9 km
Inclination: 7.0 °
Period: 1,436.0 minutes
Semi major axis: 42163 km
RCS: 1.2928 m2 (large)
Launch date: November 22, 1969
Source: United Kingdom (UK)
Launch site: AIR FORCE EASTERN TEST RANGE (AFETR)
aabbcc
Your satellite tracking list
Your tracking list is empty




NASA's NSSDC Master Catalog

Two Line Element Set (TLE):
1 04250U 69101A   18015.31365384 -.00000077  00000-0  00000+0 0  9990
2 04250   6.9779 303.7740 0022128 247.9822 290.2072  1.00275840103670
Source of the keplerian elements: AFSPC